Lid_Strength_Index
5 6 6 8 10 10 11 11 11 12 12 13 12 13 13 13 13 13 13 13 13 13
6 7 9 10 9 11 11 12 12 13 13 14 14 15 15 14 14 14 14 14 14 13
8 9 10 11 11 12 13 13 13 13 14 15 15 15 15 14 15 14 14 14 14 14
11 11 11 12 12 12 13 13 14 14 15 15 15 15 15 15 15 15 15 15 15 14
12 12 12 13 13 13 14 14 14 14 15 15 15 15 15 15 16 15 15 15 14 14
13 13 13 13 14 13 14 14 14 14 14 15 15 15 15 15 15 14 14 14 14 14
13 13 13 13 14 14 14 14 14 14 15 15 15 15 15 15 15 14 14 13 13 13
14 14 14 14 15 15 15 14 15 15 15 15 15 15 15 15 14 14 13 13 13 13
15 15 15 15 16 16 16 16 16 16 15 15 15 14 13 13 14 14 14 14 13 13
16 16 17 17 17 17 16 16 17 16 16 15 14 13 13 12 13 13 13 13 13 13
16 17 17 17 17 17 17 17 16 16 15 15 15 14 13 13 13 12 12 12 12 13
16 16 17 17 17 16 16 16 15 16 16 15 15 14 13 13 13 13 12 12 11 12
15 15 15 15 15 15 15 16 16 16 15 15 15 14 13 12 13 13 13 12 12 12
15 15 15 15 15 15 15 16 15 16 15 15 14 14 12 12 13 13 13 13 13 12